Location: ??
(35.4032°N, 139.3073°E)
Time: 05:16:18
(UTC+00:00)

CZ-2C R/B - Pass Details

Date: 30 July 2024
Orbit: 702 x 903 km, 98.2° (Epoch: 27 April)

Event Time Altitude Azimuth Distance (km) Brightness Sun altitude
Rises 16:02:42 0° 22° (NNE) 3,125 7.2 -33.6°
Reaches altitude 10° 16:05:05 10° 31° (NNE) 2,219 6.2 -33.4°
Enters shadow 16:08:09 31° 62° (ENE) 1,287 4.5 -33.2°
